Home   Weather   Rockford   Past weeks

Flag for USA Past Weather in Rockford, Illinois, USA — Yesterday and Last 2 Weeks

Now
48 °F

Overcast.


Feels Like: 43 °F
Forecast: 41 / 47 °F
Wind: 12 mph from Northeast

Location: Greater Rockford Airport

Current Time: Apr 29, 2017 at 2:50:14 am

Latest Report: Apr 29, 2017 at 1:54 am


Visibility: 10 mi

Pressure: 30.05 "Hg

Humidity: 77%

Dew Point: 41 °F

Location of RockfordLocation

Past Weather in Rockford — Graph

°F

Rockford Temperature Yesterday

Maximum temperature yesterday: 52 °F (at 4:54 pm)
Minimum temperature yesterday: 38 °F (at 4:54 am)
Average temperature yesterday: 46 °F

High & Low Weather Summary for the Past Weeks

 TemperatureHumidityPressure
High81 °F (Apr 15, 1:54 pm)93% (Apr 16, 12:54 am)30.27 "Hg (Apr 16, 12:54 am)
Low37 °F (Apr 23, 4:54 am)18% (Apr 24, 2:54 pm)29.36 "Hg (Apr 27, 4:42 am)
Average57 °F64%29.92 "Hg
* Reported Apr 14 12:54 am — Apr 29 12:54 am, Rockford, Weather by CustomWeather, © 2017

Note: Actual official high and low records may vary slightly from our data, if they occured in-between our weather recording intervals... More about our weather records

Advertising

Rockford Weather History for the Previous 24 Hours

Scroll right to see more
 ConditionsComfort  
Time TempWeatherWind HumidityBarometerVisibility
12:54 am
Sat, Apr 29
47 °FOvercast.16 mph86%30.01 "Hg10 mi
11:54 pm
Fri, Apr 28
47 °FDrizzle. Low clouds.10 mph90%30.05 "Hg8 mi
11:19 pm48 °FDrizzle. Fog.10 mph86%30.04 "Hg4 mi
10:54 pm48 °FDrizzle. Fog.14 mph89%30.04 "Hg5 mi
9:54 pm48 °FMostly cloudy.15 mph86%30.00 "Hg10 mi
8:54 pm49 °FMostly cloudy.13 mph86%29.97 "Hg10 mi
7:54 pm51 °FFog.14 mph89%29.95 "Hg6 mi
6:54 pm51 °FLow clouds.9 mph89%29.92 "Hg7 mi
6:20 pm51 °FDrizzle. Fog.9 mph86%29.91 "Hg6 mi
5:54 pm51 °FOvercast.8 mph86%29.91 "Hg7 mi
4:54 pm52 °FDrizzle. Mostly cloudy.9 mph80%29.89 "Hg7 mi
3:54 pm51 °FOvercast.10 mph80%29.89 "Hg10 mi
2:54 pm51 °FOvercast.7 mph77%29.93 "Hg10 mi
1:54 pm51 °FLight rain. Overcast.7 mph77%29.94 "Hg7 mi
12:54 pm50 °FLight rain. Mostly cloudy.5 mph66%29.96 "Hg8 mi
11:54 am50 °FMostly cloudy.3 mph61%29.96 "Hg10 mi
10:54 am49 °FMostly cloudy.3 mph55%29.96 "Hg10 mi
9:54 am47 °FMore clouds than sun.5 mph59%29.96 "Hg10 mi
9:28 am46 °FMostly cloudy.5 mph61%29.95 "Hg10 mi
8:54 am44 °FMostly cloudy.No wind63%29.97 "Hg10 mi
7:54 am42 °FPassing clouds.3 mph65%29.96 "Hg10 mi
6:54 am39 °FPassing clouds.5 mph86%29.95 "Hg10 mi
5:54 am39 °FPassing clouds.No wind76%29.93 "Hg10 mi
4:54 am38 °FPassing clouds.No wind76%29.90 "Hg10 mi
3:54 am40 °FPassing clouds.3 mph73%29.89 "Hg10 mi
2:54 am39 °FPassing clouds.3 mph82%29.90 "Hg10 mi
2:05 am39 °FPassing clouds.6 mph79%29.89 "Hg10 mi
Weather by CustomWeather, © 2017

See weather overviewHow to use our weather pages